| time (UTC) | temp C | wind direction | speed KPH | gust KPH | rain 1hr cm | rain 24hr cm | rain mn cm | humidity % | barometer mb |
| 20260507001607 | 13 | 83 | 0.0 | 0.0 | 0.00 | 0.00 | 0.00 | 81 | 1006.4 |
| 20260507000059 | 13 | 83 | 0.0 | 0.0 | 0.00 | 0.00 | 0.00 | 80 | 1006.4 |
| 20260506234619 | 13 | 83 | 0.0 | 0.0 | 0.00 | 0.00 | 0.00 | 79 | 1006.5 |
| 20260506233054 | 13 | 83 | 0.0 | 1.6 | 0.00 | 0.00 | 0.00 | 78 | 1006.4 |
| 20260506231551 | 13 | 65 | 1.6 | 6.4 | 0.00 | 0.00 | 0.00 | 76 | 1006.4 |
| 20260506230050 | 14 | 92 | 1.6 | 4.8 | 0.00 | 0.00 | 0.00 | 75 | 1006.4 |
| 20260506224539 | 14 | 84 | 1.6 | 8.0 | 0.00 | 0.00 | 0.00 | 75 | 1006.3 |
| 20260506223036 | 14 | 143 | 0.0 | 11.3 | 0.00 | 0.00 | 0.00 | 75 | 1006.1 |
| 20260506221534 | 14 | 143 | 1.6 | 11.3 | 0.00 | 0.00 | 0.00 | 75 | 1006.0 |
| 20260506220036 | 14 | 281 | 0.0 | 6.4 | 0.00 | 0.00 | 0.00 | 75 | 1005.8 |
| 20260506214532 | 13 | 115 | 0.0 | 6.4 | 0.00 | 0.00 | 0.00 | 80 | 1005.9 |
| 20260506213033 | 13 | 108 | 0.0 | 3.2 | 0.00 | 0.00 | 0.00 | 82 | 1005.9 |
| 20260506211531 | 12 | 105 | 0.0 | 1.6 | 0.00 | 0.00 | 0.00 | 83 | 1005.8 |
| 20260506210035 | 13 | 89 | 0.0 | 0.0 | 0.00 | 0.00 | 0.00 | 84 | 1005.9 |
| 20260506204546 | 13 | 89 | 0.0 | 1.6 | 0.00 | 0.00 | 0.00 | 82 | 1006.1 |
| 20260506203031 | 14 | 89 | 0.0 | 1.6 | 0.00 | 0.00 | 0.00 | 78 | 1005.9 |
| 20260506201534 | 15 | 108 | 0.0 | 0.0 | 0.00 | 0.00 | 0.00 | 75 | 1005.8 |
| 20260506200030 | 15 | 108 | 0.0 | 0.0 | 0.00 | 0.00 | 0.00 | 72 | 1005.8 |
| 20260506194528 | 15 | 108 | 0.0 | 0.0 | 0.00 | 0.00 | 0.00 | 71 | 1005.7 |
| 20260506193027 | 15 | 94 | 0.0 | 1.6 | 0.00 | 0.00 | 0.00 | 70 | 1005.7 |
| 20260506191528 | 16 | 94 | 0.0 | 1.6 | 0.00 | 0.00 | 0.00 | 67 | 1005.6 |
| 20260506190026 | 16 | 112 | 1.6 | 9.7 | 0.00 | 0.00 | 0.00 | 66 | 1005.5 |
| 20260506184525 | 16 | 11 | 0.0 | 6.4 | 0.00 | 0.00 | 0.00 | 66 | 1005.2 |
| 20260506183025 | 16 | 86 | 0.0 | 9.7 | 0.00 | 0.00 | 0.00 | 67 | 1005.0 |
| 20260506181527 | 16 | 94 | 0.0 | 4.8 | 0.00 | 0.00 | 0.00 | 67 | 1004.9 |
| 20260506180024 | 16 | 75 | 0.0 | 12.9 | 0.00 | 0.00 | 0.00 | 68 | 1004.8 |
| 20260506174522 | 16 | 75 | 0.0 | 4.8 | 0.00 | 0.00 | 0.00 | 71 | 1004.9 |
| 20260506173023 | 16 | 102 | 0.0 | 1.6 | 0.00 | 0.00 | 0.00 | 72 | 1004.9 |
| 20260506171534 | 16 | 102 | 0.0 | 6.4 | 0.00 | 0.00 | 0.00 | 72 | 1004.9 |
| 20260506170021 | 16 | 78 | 0.0 | 8.0 | 0.00 | 0.00 | 0.00 | 73 | 1004.9 |
| 20260506164521 | 16 | 130 | 0.0 | 1.6 | 0.00 | 0.00 | 0.00 | 74 | 1005.0 |
| 20260506163020 | 16 | 113 | 1.6 | 12.9 | 0.00 | 0.00 | 0.00 | 73 | 1005.1 |
| 20260506161522 | 16 | 94 | 0.0 | 11.3 | 0.00 | 0.00 | 0.00 | 74 | 1005.2 |
| 20260506160029 | 17 | 77 | 1.6 | 12.9 | 0.00 | 0.00 | 0.00 | 67 | 1005.5 |
| 20260506154515 | 17 | 148 | 4.8 | 17.7 | 0.00 | 0.00 | 0.00 | 64 | 1005.7 |
| 20260506153013 | 17 | 41 | 1.6 | 14.5 | 0.00 | 0.00 | 0.00 | 62 | 1005.8 |
| 20260506151520 | 17 | 58 | 4.8 | 17.7 | 0.00 | 0.00 | 0.00 | 61 | 1005.9 |
| 20260506150025 | 18 | 95 | 3.2 | 9.7 | 0.00 | 0.00 | 0.00 | 59 | 1005.8 |
| 20260506144512 | 18 | 70 | 0.0 | 11.3 | 0.00 | 0.00 | 0.00 | 59 | 1005.9 |
| 20260506143033 | 18 | 123 | 0.0 | 8.0 | 0.00 | 0.00 | 0.00 | 59 | 1006.0 |
| 20260506141510 | 18 | 8 | 1.6 | 8.0 | 0.00 | 0.00 | 0.00 | 59 | 1006.1 |
| 20260506140013 | 18 | 77 | 3.2 | 8.0 | 0.00 | 0.00 | 0.00 | 58 | 1006.3 |
| 20260506134509 | 18 | 40 | 1.6 | 6.4 | 0.00 | 0.00 | 0.00 | 57 | 1006.4 |
| 20260506133009 | 18 | 104 | 4.8 | 11.3 | 0.00 | 0.00 | 0.00 | 57 | 1006.6 |
| 20260506131515 | 18 | 77 | 1.6 | 14.5 | 0.00 | 0.00 | 0.00 | 56 | 1006.6 |
| 20260506130010 | 18 | 41 | 4.8 | 11.3 | 0.00 | 0.00 | 0.00 | 53 | 1006.8 |
| 20260506124507 | 19 | 85 | 3.2 | 11.3 | 0.00 | 0.00 | 0.00 | 54 | 1006.9 |
| 20260506123007 | 18 | 328 | 3.2 | 12.9 | 0.00 | 0.00 | 0.00 | 56 | 1007.0 |
| 20260506121507 | 18 | 103 | 3.2 | 9.7 | 0.00 | 0.00 | 0.00 | 55 | 1007.1 |
| 20260506120006 | 18 | 72 | 1.6 | 6.4 | 0.00 | 0.00 | 0.00 | 57 | 1007.1 |
| 20260506114505 | 19 | 122 | 1.6 | 8.0 | 0.00 | 0.00 | 0.00 | 56 | 1007.1 |
| 20260506113002 | 19 | 69 | 3.2 | 12.9 | 0.00 | 0.00 | 0.00 | 57 | 1007.2 |
| 20260506111503 | 18 | 343 | 1.6 | 6.4 | 0.00 | 0.00 | 0.00 | 59 | 1007.3 |
| 20260506110006 | 18 | 87 | 0.0 | 8.0 | 0.00 | 0.00 | 0.00 | 60 | 1007.4 |
| 20260506104501 | 18 | 101 | 1.6 | 17.7 | 0.00 | 0.00 | 0.00 | 59 | 1007.6 |
| 20260506103059 | 19 | 92 | 3.2 | 12.9 | 0.00 | 0.00 | 0.00 | 58 | 1007.4 |
| 20260506101603 | 18 | 332 | 4.8 | 14.5 | 0.00 | 0.00 | 0.00 | 62 | 1007.6 |
| 20260506100056 | 18 | 269 | 3.2 | 12.9 | 0.00 | 0.00 | 0.00 | 59 | 1007.7 |
| 20260506094557 | 18 | 273 | 3.2 | 12.9 | 0.00 | 0.00 | 0.00 | 60 | 1007.8 |
| 20260506093054 | 17 | 39 | 1.6 | 12.9 | 0.00 | 0.00 | 0.00 | 65 | 1007.7 |
| 20260506091548 | 17 | 115 | 0.0 | 6.4 | 0.00 | 0.00 | 0.00 | 65 | 1007.6 |
| 20260506090045 | 16 | 98 | 1.6 | 9.7 | 0.00 | 0.00 | 0.00 | 66 | 1007.5 |
| 20260506084542 | 16 | 70 | 4.8 | 19.3 | 0.00 | 0.00 | 0.00 | 69 | 1007.5 |
| 20260506083036 | 15 | 91 | 3.2 | 11.3 | 0.00 | 0.00 | 0.00 | 73 | 1007.5 |
| 20260506081534 | 14 | 282 | 1.6 | 12.9 | 0.00 | 0.00 | 0.00 | 74 | 1007.4 |
| 20260506073022 | 13 | 68 | 1.6 | 6.4 | 0.00 | 0.00 | 0.00 | 79 | 1007.1 |
| 20260506071521 | 12 | 75 | 1.6 | 6.4 | 0.00 | 0.00 | 0.00 | 81 | 1007.0 |
| 20260506061518 | 11 | 128 | 0.0 | 1.6 | 0.00 | 0.00 | 0.00 | 86 | 1006.9 |
| 20260506044510 | 10 | 132 | 0.0 | 0.0 | 0.00 | 0.00 | 0.00 | 83 | 1006.6 |
| 20260506043007 | 10 | 132 | 0.0 | 0.0 | 0.00 | 0.00 | 0.00 | 85 | 1006.2 |
| 20260506041513 | 10 | 131 | 0.0 | 0.0 | 0.00 | 0.00 | 0.00 | 86 | 1006.0 |
| 20260506040006 | 10 | 131 | 0.0 | 0.0 | 0.00 | 0.00 | 0.00 | 85 | 1005.9 |
| 20260506034507 | 10 | 132 | 0.0 | 0.0 | 0.00 | 0.00 | 0.00 | 84 | 1005.7 |
| 20260506033004 | 10 | 131 | 0.0 | 0.0 | 0.00 | 0.00 | 0.00 | 85 | 1005.5 |
| 20260506031507 | 10 | 132 | 0.0 | 0.0 | 0.00 | 0.00 | 0.00 | 84 | 1005.6 |
| 20260506030100 | 10 | 131 | 0.0 | 0.0 | 0.00 | 0.00 | 0.00 | 83 | 1005.4 |
| 20260506024600 | 10 | 132 | 0.0 | 0.0 | 0.00 | 0.00 | 0.00 | 82 | 1005.3 |
| 20260506023100 | 10 | 131 | 0.0 | 0.0 | 0.00 | 0.00 | 0.00 | 81 | 1005.5 |
| 20260506021556 | 10 | 131 | 0.0 | 0.0 | 0.00 | 0.00 | 0.00 | 81 | 1005.6 |
| 20260506020053 | 10 | 132 | 0.0 | 0.0 | 0.00 | 0.00 | 0.00 | 81 | 1005.7 |
| 20260506014555 | 11 | 131 | 0.0 | 0.0 | 0.00 | 0.00 | 0.00 | 79 | 1005.6 |
| 20260506013049 | 11 | 131 | 0.0 | 1.6 | 0.00 | 0.00 | 0.00 | 78 | 1005.6 |
| 20260506011547 | 11 | 131 | 0.0 | 1.6 | 0.00 | 0.00 | 0.00 | 77 | 1005.7 |
| 20260506010047 | 11 | 132 | 0.0 | 1.6 | 0.00 | 0.00 | 0.00 | 75 | 1005.8 |
| 20260506004545 | 11 | 144 | 0.0 | 1.6 | 0.00 | 0.00 | 0.00 | 75 | 1005.8 |
| 20260506003042 | 12 | 162 | 0.0 | 4.8 | 0.00 | 0.00 | 0.00 | 74 | 1005.8 |